Location: Glasgow
(55.8642°N, 4.2518°W)
Time: 18:48:21
(UTC+01:00)

ISS - Pass Details

Date: 07 October 2017
Orbit: 401 x 408 km, 51.6° (Epoch: 22 October)

Event Time Altitude Azimuth Distance (km) Brightness Sun altitude
Rises 19:26:57 0° 260° (W) 2,325 2.1 -7.9°
Reaches altitude 10° 19:29:06 10° 253° (WSW) 1,466 0.4 -8.2°
Maximum altitude 19:32:12 39° 183° (S) 626 -2.9 -8.6°
Enters shadow 19:35:04 12° 114° (ESE) 1,381 -1.7 -9.0°
